DW1009 Weather Reports


Display with metric or nautical units.
time (UTC)temp
F
wind
direction
speed
MPH
gust
MPH
rain 1hr
in
rain 24hr
in
rain mn
in
humidity
%
barometer
mb
20260502161403 61 242 1.0 3.0 0.00 0.00 0.00 92 1012.8
20260502160402 61 328 1.0 2.0 0.00 0.00 0.00 92 1012.9
20260502150401 61 77 1.0 2.0 0.00 0.00 0.00 92 1012.4
20260502130359 60 163 0.0 2.0 0.00 0.00 0.00 94 1011.9
20260502123400 59 215 0.0 3.0 0.00 0.00 0.00 94 1011.9
20260502122359 59 238 1.0 3.0 0.00 0.00 0.00 94 1011.8
20260502121359 59 217 0.0 2.0 0.00 0.00 0.00 94 1011.7
20260502120359 60 259 0.0 3.0 0.00 0.00 0.00 94 1011.7
20260502115358 60 281 1.0 4.0 0.00 0.00 0.00 94 1011.5
20260502114358 60 244 2.0 4.0 0.00 0.00 0.00 94 1011.5
20260502113358 60 161 1.0 3.0 0.00 0.00 0.00 94 1011.4
20260502112358 60 242 1.0 3.0 0.00 0.00 0.00 94 1011.3
20260502110357 59 148 2.0 2.0 0.00 0.00 0.00 95 1011.3
20260502105357 59 213 2.0 3.0 0.00 0.00 0.00 95 1011.3
20260502103358 59 260 0.0 3.0 0.00 0.00 0.00 94 1011.2
20260502102357 59 183 1.0 3.0 0.00 0.00 0.00 95 1011.1
20260502100357 59 250 0.0 2.0 0.00 0.00 0.00 95 1011.2
20260502090357 59 251 2.0 3.0 0.00 0.00 0.00 94 1011.3
20260502070355 60 307 0.0 3.0 0.00 0.00 0.00 93 1012.2
20260502065354 60 284 0.0 2.0 0.00 0.00 0.00 93 1012.1
20260502064354 60 294 1.0 2.0 0.00 0.00 0.00 93 1012.0
20260502062355 60 277 0.0 3.0 0.00 0.00 0.00 92 1012.1
20260502061354 60 262 1.0 3.0 0.00 0.00 0.00 92 1012.0
20260502060354 60 270 0.0 2.0 0.00 0.00 0.00 92 1011.9
20260502055354 60 226 1.0 3.0 0.00 0.00 0.00 92 1011.8
20260502054354 60 12 1.0 4.0 0.00 0.00 0.00 92 1011.8
20260502053354 60 267 3.0 4.0 0.00 0.00 0.00 92 1011.9
20260502052353 60 228 2.0 3.0 0.00 0.00 0.00 92 1011.9
20260502045353 61 267 1.0 3.0 0.00 0.00 0.00 91 1011.9
20260502043353 61 290 2.0 6.0 0.00 0.00 0.00 92 1011.7
20260502042353 61 332 6.0 6.0 0.00 0.00 0.00 92 1011.6
20260502041353 61 274 3.0 5.0 0.00 0.00 0.00 92 1011.6
20260502035352 61 251 3.0 5.0 0.00 0.00 0.00 91 1011.1
20260502034352 61 302 4.0 4.0 0.00 0.00 0.00 91 1011.1
20260502033353 62 355 2.0 5.0 0.00 0.00 0.00 91 1010.7
20260502032354 62 309 1.0 6.0 0.00 0.00 0.00 91 1010.7
20260502031352 62 223 2.0 7.0 0.00 0.00 0.00 91 1010.6
20260502025352 62 11 2.0 5.0 0.00 0.00 0.00 90 1010.4
20260502024352 62 214 2.0 8.0 0.00 0.00 0.00 91 1010.4
20260502023351 63 252 0.0 4.0 0.00 0.00 0.00 90 1010.2
20260502022351 63 200 4.0 6.0 0.00 0.00 0.00 89 1010.1
20260502021352 64 274 0.0 6.0 0.00 0.00 0.00 89 1010.0
20260502015351 65 314 3.0 9.0 0.00 0.00 0.00 87 1010.0
20260502014351 65 355 5.0 8.0 0.00 0.00 0.00 86 1010.0
20260502010350 66 331 4.0 8.0 0.00 0.00 0.00 83 1009.9
20260502005351 67 307 2.0 7.0 0.00 0.00 0.00 83 1010.0
20260502004350 68 297 1.0 8.0 0.00 0.00 0.00 81 1010.0
20260502003350 67 288 1.0 7.0 0.00 0.00 0.00 82 1010.1
20260502002350 68 327 4.0 10.0 0.00 0.00 0.00 82 1010.1
20260502001350 68 339 2.0 8.0 0.00 0.00 0.00 82 1010.1
20260501235349 67 167 4.0 9.0 0.00 0.00 0.00 83 1010.2
20260501233349 67 329 3.0 11.0 0.00 0.00 0.00 84 1010.3
20260501232349 67 247 7.0 9.0 0.00 0.00 0.00 84 1010.2
20260501231349 67 266 7.0 10.0 0.00 0.00 0.00 82 1010.2
20260501230349 67 269 6.0 11.0 0.00 0.00 0.00 81 1010.2
20260501224348 68 268 6.0 9.0 0.00 0.00 0.00 79 1010.4
20260501222348 68 240 4.0 7.0 0.00 0.00 0.00 80 1010.6
20260501221348 67 225 6.0 8.0 0.00 0.00 0.00 80 1010.7
20260501215348 67 297 3.0 8.0 0.00 0.00 0.00 80 1011.0
20260501214347 67 294 3.0 8.0 0.00 0.00 0.00 80 1011.1
20260501213347 66 227 4.0 10.0 0.00 0.00 0.00 82 1011.3
20260501212347 66 290 3.0 9.0 0.00 0.00 0.00 81 1011.5
20260501211347 67 215 4.0 9.0 0.00 0.00 0.00 81 1011.5
20260501210346 67 283 3.0 10.0 0.00 0.00 0.00 80 1011.5
20260501205346 67 292 7.0 8.0 0.00 0.00 0.00 80 1011.7
20260501204346 67 246 4.0 9.0 0.00 0.00 0.00 80 1011.7
20260501203346 67 225 6.0 8.0 0.00 0.00 0.00 81 1011.7
20260501202345 67 238 2.0 10.0 0.00 0.00 0.00 81 1011.8
20260501201345 67 213 5.0 7.0 0.00 0.00 0.00 80 1011.9
20260501200345 66 225 4.0 11.0 0.00 0.00 0.00 81 1012.1
20260501195345 66 269 3.0 10.0 0.00 0.00 0.00 82 1012.0
20260501194346 66 153 4.0 9.0 0.00 0.00 0.00 82 1012.0
20260501193345 66 267 3.0 9.0 0.00 0.00 0.00 82 1012.0
20260501192344 66 221 6.0 8.0 0.00 0.00 0.00 83 1011.9
20260501191344 66 313 4.0 9.0 0.00 0.00 0.00 81 1012.0
20260501190344 66 217 4.0 10.0 0.00 0.00 0.00 81 1012.0
20260501185344 67 216 4.0 7.0 0.00 0.00 0.00 80 1012.5
20260501184344 66 266 4.0 8.0 0.00 0.00 0.00 81 1012.5
20260501183343 66 270 6.0 9.0 0.00 0.00 0.00 82 1012.6
20260501182343 66 228 6.0 7.0 0.00 0.00 0.00 81 1012.8
20260501181343 67 221 4.0 7.0 0.00 0.00 0.00 81 1012.8
20260501175343 68 280 1.0 5.0 0.00 0.00 0.00 78 1012.8
20260501174343 67 169 1.0 3.0 0.00 0.00 0.00 78 1013.0
20260501173343 67 155 1.0 4.0 0.00 0.00 0.00 78 1012.9
20260501172342 67 140 0.0 4.0 0.00 0.00 0.00 79 1013.0
20260501171342 67 85 3.0 5.0 0.00 0.00 0.00 79 1013.1
20260501170342 67 100 2.0 4.0 0.00 0.00 0.00 79 1013.1
20260501164341 66 154 1.0 3.0 0.00 0.00 0.00 80 1013.0
20260501162341 65 152 0.0 5.0 0.00 0.00 0.00 81 1013.0